This is the latest recevied weather packets stored in our database for station/object EA5FOG-11. If no packets are shown the sender has not sent any weather packets the latest 10 day(s).
| Time | Temp. | Humidity | Pressure | Rain* | Wind** | Luminosity | Snow |
|---|---|---|---|---|---|---|---|
| 1777630359 | 22.78° C | 57% | 962.7 hPa | - | - | - | - |
| 1777629459 | 23.89° C | 57% | 962.7 hPa | - | - | - | - |
| 1777628558 | 23.89° C | 57% | 962.6 hPa | - | - | - | - |
| 1777627657 | 23.33° C | 58% | 962.5 hPa | - | - | - | - |
| 1777626756 | 22.78° C | 59% | 962.5 hPa | - | - | - | - |
| 1777625856 | 22.22° C | 60% | 962.5 hPa | - | - | - | - |
| 1777624955 | 21.11° C | 61% | 962.3 hPa | - | - | - | - |
| 1777624054 | 20.56° C | 61% | 962 hPa | - | - | - | - |
| 1777623153 | 20.56° C | 62% | 962.1 hPa | - | - | - | - |
| 1777622252 | 20.56° C | 62% | 961.9 hPa | - | - | - | - |
| 1777621351 | 20° C | 62% | 961.9 hPa | - | - | - | - |
| 1777619568 | 20° C | 63% | 961.6 hPa | - | - | - | - |
| 1777618668 | 20° C | 63% | 961.6 hPa | - | - | - | - |
| 1777617767 | 18.89° C | 64% | 961.4 hPa | - | - | - | - |
| 1777616866 | 17.78° C | 65% | 961.3 hPa | - | - | - | - |
| 1777615965 | 17.22° C | 65% | 961.2 hPa | - | - | - | - |
| 1777615064 | 16.67° C | 65% | 961.1 hPa | - | - | - | - |
| 1777614164 | 16.11° C | 65% | 961 hPa | - | - | - | - |
| 1777613263 | 16.11° C | 65% | 960.6 hPa | - | - | - | - |
| 1777612362 | 16.11° C | 65% | 960.6 hPa | - | - | - | - |
| 1777611461 | 16.11° C | 64% | 960.4 hPa | - | - | - | - |
| 1777610560 | 16.11° C | 64% | 960.2 hPa | - | - | - | - |
| 1777609660 | 15.56° C | 64% | 960.1 hPa | - | - | - | - |
| 1777608759 | 16.11° C | 64% | 959.8 hPa | - | - | - | - |
| 1777607858 | 16.11° C | 64% | 959.9 hPa | - | - | - | - |
* Rain since midnight (hover to see other rain measurements)
** Current wind speed in m/s (hover to see current wind gust speed)